Time,TemperatureF,DewpointF,PressureIn,WindDirection,WindDirectionDegrees,WindSpeedMPH,WindSpeedGustMPH,Humidity,HourlyPrecipIn,Conditions,Clouds,dailyrainin,SoftwareType,DateUTC
2013-06-12 00:03:00,54.0,54.0,29.57,ENE,68,3.0,5.0,100,0.00,,,0.87,,2013-06-12 04:03:00,
2013-06-12 00:13:00,54.0,54.0,29.57,ENE,68,3.0,5.0,100,0.00,,,0.87,,2013-06-12 04:13:00,
2013-06-12 00:23:00,55.0,55.0,29.54,ENE,68,2.0,3.0,100,0.00,,,0.88,,2013-06-12 04:23:00,
2013-06-12 00:33:00,55.0,55.0,29.56,NNE,22,2.0,6.0,100,0.00,,,0.88,,2013-06-12 04:33:00,
2013-06-12 00:42:00,55.0,55.0,29.56,NNW,338,1.0,2.0,100,0.00,,,0.88,,2013-06-12 04:42:00,
2013-06-12 00:53:00,55.0,55.0,29.56,NNW,338,1.0,2.0,100,0.00,,,0.88,,2013-06-12 04:53:00,
2013-06-12 01:03:00,55.0,55.0,29.56,NW,315,2.0,4.0,100,0.00,,,0.88,,2013-06-12 05:03:00,
2013-06-12 01:12:00,55.0,55.0,29.54,NNE,22,2.0,5.0,100,0.00,,,0.88,,2013-06-12 05:12:00,
2013-06-12 01:22:00,55.0,55.0,29.54,NNE,22,2.0,5.0,100,0.00,,,0.88,,2013-06-12 05:22:00,
2013-06-12 01:32:00,55.0,55.0,29.54,NE,45,2.0,5.0,100,0.00,,,0.88,,2013-06-12 05:32:00,
2013-06-12 01:42:00,55.0,55.0,29.54,NE,45,3.0,5.0,100,0.00,,,0.88,,2013-06-12 05:42:00,
2013-06-12 01:52:00,55.0,55.0,29.54,NE,45,3.0,5.0,100,0.00,,,0.88,,2013-06-12 05:52:00,
2013-06-12 02:02:00,55.0,55.0,29.54,NNE,22,3.0,6.0,100,0.00,,,0.88,,2013-06-12 06:02:00,
2013-06-12 02:12:00,55.0,55.0,29.54,NNE,22,3.0,6.0,100,0.00,,,0.88,,2013-06-12 06:12:00,
2013-06-12 02:22:00,55.0,55.0,29.54,NW,315,2.0,3.0,100,0.00,,,0.88,,2013-06-12 06:22:00,
2013-06-12 02:32:00,55.0,55.0,29.54,West,270,3.0,5.0,100,0.00,,,0.89,,2013-06-12 06:32:00,
2013-06-12 02:42:00,55.0,55.0,29.54,West,270,3.0,5.0,100,0.00,,,0.89,,2013-06-12 06:42:00,
2013-06-12 02:52:00,55.0,55.0,29.54,NW,315,2.0,3.0,100,0.00,,,0.90,,2013-06-12 06:52:00,
2013-06-12 03:02:00,55.0,55.0,29.54,WNW,292,2.0,3.0,100,0.00,,,0.91,,2013-06-12 07:02:00,
2013-06-12 03:12:00,55.0,55.0,29.54,North,0,2.0,4.0,100,0.00,,,0.92,,2013-06-12 07:12:00,
2013-06-12 03:22:00,55.0,55.0,29.54,South,180,1.0,2.0,100,0.00,,,0.92,,2013-06-12 07:22:00,
2013-06-12 03:33:00,55.0,55.0,29.54,East,90,2.0,5.0,100,0.00,,,0.92,,2013-06-12 07:33:00,
2013-06-12 03:43:00,55.0,55.0,29.54,NW,315,3.0,6.0,100,0.00,,,0.93,,2013-06-12 07:43:00,
2013-06-12 03:53:00,55.0,55.0,29.53,SSE,158,1.0,3.0,100,0.00,,,0.93,,2013-06-12 07:53:00,
2013-06-12 04:02:00,55.0,55.0,29.54,North,0,0.0,0.0,100,0.00,,,0.94,,2013-06-12 08:02:00,
2013-06-12 04:12:00,55.0,55.0,29.53,NW,315,1.0,3.0,100,0.00,,,0.94,,2013-06-12 08:12:00,
2013-06-12 04:22:00,55.0,55.0,29.53,NW,315,2.0,3.0,100,0.00,,,0.94,,2013-06-12 08:22:00,
2013-06-12 04:33:00,55.0,55.0,29.53,ESE,112,2.0,4.0,100,0.00,,,0.94,,2013-06-12 08:33:00,
2013-06-12 04:43:00,55.0,55.0,29.53,NW,315,2.0,4.0,100,0.00,,,0.94,,2013-06-12 08:43:00,
2013-06-12 04:53:00,55.0,55.0,29.53,NNW,338,1.0,4.0,100,0.00,,,0.94,,2013-06-12 08:53:00,
2013-06-12 05:01:00,55.0,55.0,29.53,NW,315,1.0,1.0,100,0.00,,,0.94,,2013-06-12 09:01:00,
2013-06-12 05:11:00,55.0,55.0,29.53,NW,315,1.0,4.0,100,0.00,,,0.94,,2013-06-12 09:11:00,
2013-06-12 05:22:00,55.0,55.0,29.53,West,270,3.0,5.0,100,0.00,,,0.94,,2013-06-12 09:22:00,
2013-06-12 05:33:00,55.0,55.0,29.53,West,270,3.0,4.0,100,0.00,,,0.94,,2013-06-12 09:33:00,
2013-06-12 05:43:00,55.0,55.0,29.53,NNE,22,1.0,4.0,100,0.00,,,0.94,,2013-06-12 09:43:00,
2013-06-12 05:53:00,55.0,55.0,29.53,South,180,1.0,3.0,100,0.00,,,0.94,,2013-06-12 09:53:00,
2013-06-12 06:02:00,55.0,55.0,29.53,WSW,248,2.0,5.0,100,0.00,,,0.94,,2013-06-12 10:02:00,
2013-06-12 06:12:00,55.0,55.0,29.54,NNE,22,2.0,3.0,100,0.00,,,0.94,,2013-06-12 10:12:00,
2013-06-12 06:23:00,55.0,55.0,29.54,SSE,158,1.0,3.0,100,0.00,,,0.94,,2013-06-12 10:23:00,
2013-06-12 06:33:00,56.0,56.0,29.54,NNE,22,1.0,3.0,100,0.00,,,0.94,,2013-06-12 10:33:00,
2013-06-12 06:43:00,56.0,56.0,29.54,North,0,2.0,5.0,100,0.00,,,0.94,,2013-06-12 10:43:00,
2013-06-12 06:53:00,56.0,56.0,29.54,NW,315,1.0,2.0,100,0.00,,,0.94,,2013-06-12 10:53:00,
2013-06-12 07:02:00,56.0,56.0,29.54,SSW,202,1.0,1.0,100,0.00,,,0.94,,2013-06-12 11:02:00,
2013-06-12 07:12:00,56.0,56.0,29.54,WNW,292,3.0,6.0,100,0.00,,,0.94,,2013-06-12 11:12:00,
2013-06-12 07:24:00,56.0,56.0,29.54,WNW,292,1.0,2.0,100,0.00,,,0.80,,2013-06-12 11:24:00,
2013-06-12 07:33:00,57.0,57.0,29.54,WNW,292,3.0,5.0,100,0.00,,,0.76,,2013-06-12 11:33:00,
2013-06-12 07:43:00,57.0,57.0,29.54,WNW,292,3.0,5.0,100,0.00,,,0.76,,2013-06-12 11:43:00,
2013-06-12 07:53:00,57.0,57.0,29.54,NE,45,2.0,5.0,100,0.00,,,0.67,,2013-06-12 11:53:00,
2013-06-12 08:02:00,57.0,57.0,29.54,ENE,68,2.0,3.0,100,0.00,,,0.64,,2013-06-12 12:02:00,
2013-06-12 08:11:00,58.0,58.0,29.54,NW,315,3.0,8.0,100,0.00,,,0.61,,2013-06-12 12:11:00,
2013-06-12 08:23:00,58.0,58.0,29.54,NE,45,2.0,5.0,100,0.00,,,0.58,,2013-06-12 12:23:00,
2013-06-12 08:33:00,58.0,58.0,29.54,North,0,5.0,10.0,100,0.00,,,0.56,,2013-06-12 12:33:00,
2013-06-12 08:43:00,58.0,58.0,29.54,NE,45,3.0,5.0,100,0.00,,,0.56,,2013-06-12 12:43:00,
2013-06-12 08:53:00,57.0,57.0,29.54,NE,45,2.0,5.0,100,0.00,,,0.56,,2013-06-12 12:53:00,
2013-06-12 09:02:00,57.0,57.0,29.54,NE,45,2.0,5.0,100,0.00,,,0.56,,2013-06-12 13:02:00,
2013-06-12 09:12:00,57.0,57.0,29.54,SE,135,2.0,4.0,100,0.00,,,0.54,,2013-06-12 13:12:00,
2013-06-12 09:22:00,57.0,57.0,29.54,ENE,68,4.0,5.0,100,0.00,,,0.52,,2013-06-12 13:22:00,
2013-06-12 09:33:00,58.0,58.0,29.54,NE,45,4.0,5.0,100,0.00,,,0.50,,2013-06-12 13:33:00,
2013-06-12 09:43:00,58.0,58.0,29.54,ENE,68,3.0,5.0,100,0.00,,,0.49,,2013-06-12 13:43:00,
2013-06-12 09:53:00,58.0,58.0,29.56,East,90,4.0,8.0,99,0.00,,,0.48,,2013-06-12 13:53:00,
2013-06-12 10:02:00,58.0,58.0,29.56,East,90,4.0,8.0,99,0.00,,,0.48,,2013-06-12 14:02:00,
2013-06-12 10:11:00,61.0,61.0,29.56,NE,45,3.0,7.0,100,0.00,,,0.47,,2013-06-12 14:11:00,
2013-06-12 10:24:00,60.0,59.0,29.56,NNW,338,5.0,10.0,96,0.00,,,0.47,,2013-06-12 14:24:00,
2013-06-12 10:33:00,60.0,59.0,29.56,NNW,338,5.0,10.0,96,0.00,,,0.47,,2013-06-12 14:33:00,
2013-06-12 10:43:00,60.0,60.0,29.56,East,90,4.0,6.0,99,0.00,,,0.46,,2013-06-12 14:43:00,
2013-06-12 10:53:00,62.0,61.0,29.56,ENE,68,5.0,11.0,97,0.00,,,0.45,,2013-06-12 14:53:00,
2013-06-12 11:01:00,62.0,61.0,29.56,ENE,68,5.0,11.0,97,0.00,,,0.45,,2013-06-12 15:01:00,
2013-06-12 11:12:00,62.0,61.0,29.57,NW,315,5.0,10.0,96,0.00,,,0.44,,2013-06-12 15:12:00,
2013-06-12 11:23:00,63.0,62.0,29.57,NNE,22,7.0,15.0,95,0.00,,,0.42,,2013-06-12 15:23:00,
2013-06-12 11:33:00,63.0,61.0,29.57,NE,45,2.0,5.0,93,0.00,,,0.41,,2013-06-12 15:33:00,
2013-06-12 11:43:00,63.0,61.0,29.58,NE,45,7.0,11.0,92,0.00,,,0.40,,2013-06-12 15:43:00,
2013-06-12 11:52:00,63.0,60.0,29.58,NE,45,5.0,10.0,91,0.00,,,0.40,,2013-06-12 15:52:00,
2013-06-12 12:02:00,63.0,60.0,29.58,NE,45,5.0,10.0,91,0.00,,,0.40,,2013-06-12 16:02:00,
2013-06-12 12:12:00,63.0,60.0,29.59,NE,45,5.0,7.0,91,0.00,,,0.39,,2013-06-12 16:12:00,
2013-06-12 12:22:00,63.0,60.0,29.59,NE,45,7.0,15.0,90,0.00,,,0.38,,2013-06-12 16:22:00,
2013-06-12 12:33:00,63.0,60.0,29.59,NNE,22,4.0,7.0,90,0.00,,,0.38,,2013-06-12 16:33:00,
2013-06-12 12:43:00,62.0,59.0,29.59,NE,45,3.0,8.0,90,0.00,,,0.37,,2013-06-12 16:43:00,
2013-06-12 12:52:00,62.0,59.0,29.59,NE,45,3.0,8.0,90,0.00,,,0.37,,2013-06-12 16:52:00,
2013-06-12 13:02:00,63.0,61.0,29.59,NE,45,6.0,14.0,92,0.00,,,0.34,,2013-06-12 17:02:00,
2013-06-12 13:12:00,63.0,60.0,29.59,ENE,68,6.0,10.0,90,0.00,,,0.33,,2013-06-12 17:12:00,
2013-06-12 13:23:00,63.0,60.0,29.59,NW,315,6.0,12.0,90,0.00,,,0.32,,2013-06-12 17:23:00,
2013-06-12 13:33:00,62.0,59.0,29.61,NNE,22,5.0,11.0,90,0.00,,,0.32,,2013-06-12 17:33:00,
2013-06-12 13:42:00,62.0,59.0,29.61,NNE,22,5.0,11.0,90,0.00,,,0.32,,2013-06-12 17:42:00,
2013-06-12 13:52:00,62.0,59.0,29.61,NNE,22,5.0,11.0,90,0.00,,,0.32,,2013-06-12 17:52:00,
2013-06-12 14:02:00,64.0,60.0,29.62,NNE,22,7.0,12.0,87,0.00,,,0.32,,2013-06-12 18:02:00,
2013-06-12 14:12:00,64.0,60.0,29.62,North,0,4.0,7.0,87,0.00,,,0.32,,2013-06-12 18:12:00,
2013-06-12 14:22:00,63.0,59.0,29.63,NE,45,4.0,10.0,87,0.00,,,0.31,,2013-06-12 18:22:00,
2013-06-12 14:33:00,62.0,58.0,29.63,NNW,338,1.0,3.0,88,0.00,,,0.31,,2013-06-12 18:33:00,
2013-06-12 14:43:00,62.0,59.0,29.63,North,0,4.0,15.0,89,0.00,,,0.31,,2013-06-12 18:43:00,
2013-06-12 14:53:00,62.0,59.0,29.63,ENE,68,7.0,15.0,89,0.00,,,0.31,,2013-06-12 18:53:00,
2013-06-12 15:02:00,63.0,59.0,29.64,NE,45,4.0,10.0,88,0.00,,,0.30,,2013-06-12 19:02:00,
2013-06-12 15:11:00,63.0,59.0,29.64,NE,45,4.0,10.0,88,0.00,,,0.30,,2013-06-12 19:11:00,
2013-06-12 15:22:00,63.0,59.0,29.64,NE,45,4.0,10.0,88,0.00,,,0.30,,2013-06-12 19:22:00,
2013-06-12 15:32:00,63.0,59.0,29.65,ESE,112,5.0,11.0,88,0.00,,,0.30,,2013-06-12 19:32:00,
2013-06-12 15:42:00,63.0,59.0,29.65,ENE,68,5.0,9.0,88,0.00,,,0.30,,2013-06-12 19:42:00,
2013-06-12 15:52:00,63.0,60.0,29.65,ESE,112,5.0,12.0,89,0.00,,,0.29,,2013-06-12 19:52:00,
2013-06-12 16:02:00,62.0,59.0,29.66,ENE,68,6.0,13.0,89,0.00,,,0.30,,2013-06-12 20:02:00,
2013-06-12 16:11:00,62.0,59.0,29.66,NNE,22,5.0,12.0,90,0.00,,,0.30,,2013-06-12 20:11:00,
2013-06-12 16:22:00,62.0,59.0,29.66,East,90,4.0,7.0,90,0.00,,,0.29,,2013-06-12 20:22:00,
2013-06-12 16:32:00,62.0,59.0,29.66,ENE,68,7.0,16.0,90,0.00,,,0.29,,2013-06-12 20:32:00,
2013-06-12 16:43:00,62.0,59.0,29.66,NE,45,6.0,13.0,89,0.00,,,0.29,,2013-06-12 20:43:00,
2013-06-12 16:54:00,62.0,59.0,29.67,NW,315,4.0,6.0,89,0.00,,,0.29,,2013-06-12 20:54:00,
2013-06-12 17:01:00,62.0,59.0,29.67,NW,315,4.0,6.0,89,0.00,,,0.29,,2013-06-12 21:01:00,
2013-06-12 17:12:00,62.0,59.0,29.67,NNE,22,6.0,12.0,89,0.00,,,0.29,,2013-06-12 21:12:00,
2013-06-12 17:22:00,61.0,58.0,29.67,NNW,338,5.0,11.0,91,0.00,,,0.29,,2013-06-12 21:22:00,
2013-06-12 17:33:00,61.0,58.0,29.67,NNW,338,5.0,11.0,91,0.00,,,0.29,,2013-06-12 21:33:00,
2013-06-12 17:43:00,61.0,59.0,29.69,NNW,338,6.0,10.0,92,0.00,,,0.28,,2013-06-12 21:43:00,
2013-06-12 17:53:00,60.0,58.0,29.69,NW,315,3.0,7.0,94,0.00,,,0.29,,2013-06-12 21:53:00,
2013-06-12 18:01:00,60.0,58.0,29.70,WNW,292,5.0,10.0,94,0.00,,,0.29,,2013-06-12 22:01:00,
2013-06-12 18:11:00,61.0,60.0,29.69,NNE,22,5.0,12.0,95,0.00,,,0.29,,2013-06-12 22:11:00,
2013-06-12 18:22:00,61.0,59.0,29.69,NW,315,6.0,10.0,94,0.00,,,0.29,,2013-06-12 22:22:00,
2013-06-12 18:32:00,61.0,59.0,29.69,NW,315,6.0,10.0,94,0.00,,,0.29,,2013-06-12 22:32:00,
2013-06-12 18:43:00,61.0,59.0,29.70,NNE,22,2.0,4.0,93,0.00,,,0.29,,2013-06-12 22:43:00,
2013-06-12 18:52:00,61.0,59.0,29.70,NNE,22,4.0,6.0,93,0.00,,,0.29,,2013-06-12 22:52:00,
2013-06-12 19:02:00,60.0,58.0,29.71,NNW,338,6.0,9.0,94,0.00,,,0.29,,2013-06-12 23:02:00,
2013-06-12 19:12:00,60.0,58.0,29.71,NE,45,4.0,10.0,93,0.00,,,0.28,,2013-06-12 23:12:00,
2013-06-12 19:22:00,60.0,58.0,29.71,NE,45,4.0,10.0,93,0.00,,,0.28,,2013-06-12 23:22:00,
2013-06-12 19:32:00,60.0,57.0,29.72,ENE,68,5.0,8.0,91,0.00,,,0.28,,2013-06-12 23:32:00,
2013-06-12 19:42:00,60.0,57.0,29.72,ENE,68,5.0,8.0,91,0.00,,,0.28,,2013-06-12 23:42:00,
2013-06-12 19:52:00,59.0,57.0,29.72,North,0,6.0,9.0,93,0.00,,,0.28,,2013-06-12 23:52:00,
2013-06-12 20:02:00,59.0,57.0,29.72,NW,315,6.0,9.0,93,0.00,,,0.28,,2013-06-13 00:02:00,
2013-06-12 20:12:00,59.0,57.0,29.72,NW,315,6.0,9.0,93,0.00,,,0.28,,2013-06-13 00:12:00,
2013-06-12 20:22:00,59.0,56.0,29.72,NE,45,7.0,12.0,90,0.00,,,0.28,,2013-06-13 00:22:00,
2013-06-12 20:32:00,59.0,56.0,29.74,NE,45,7.0,10.0,89,0.00,,,0.28,,2013-06-13 00:32:00,
2013-06-12 20:42:00,59.0,56.0,29.74,ENE,68,5.0,7.0,89,0.00,,,0.28,,2013-06-13 00:42:00,
2013-06-12 20:52:00,58.0,55.0,29.74,NE,45,1.0,3.0,91,0.00,,,0.28,,2013-06-13 00:52:00,
2013-06-12 21:01:00,58.0,55.0,29.74,NE,45,1.0,3.0,91,0.00,,,0.28,,2013-06-13 01:01:00,
2013-06-12 21:12:00,58.0,56.0,29.74,South,180,1.0,2.0,92,0.00,,,0.28,,2013-06-13 01:12:00,
2013-06-12 21:22:00,58.0,56.0,29.75,NE,45,3.0,5.0,93,0.00,,,0.27,,2013-06-13 01:22:00,
2013-06-12 21:33:00,58.0,56.0,29.76,NNE,22,5.0,9.0,93,0.00,,,0.26,,2013-06-13 01:33:00,
2013-06-12 21:43:00,58.0,55.0,29.76,ENE,68,3.0,8.0,91,0.00,,,0.26,,2013-06-13 01:43:00,
2013-06-12 21:53:00,58.0,55.0,29.76,ENE,68,2.0,3.0,91,0.00,,,0.25,,2013-06-13 01:53:00,
2013-06-12 22:02:00,58.0,55.0,29.76,East,90,2.0,5.0,91,0.00,,,0.24,,2013-06-13 02:02:00,
2013-06-12 22:11:00,58.0,56.0,29.76,ENE,68,3.0,5.0,94,0.00,,,0.20,,2013-06-13 02:11:00,
2013-06-12 22:12:00,58.0,56.0,29.76,NNE,22,3.0,5.0,92,0.00,,,0.24,,2013-06-13 02:12:00,
2013-06-12 22:22:00,58.0,56.0,29.76,North,0,3.0,6.0,93,0.00,,,0.22,,2013-06-13 02:22:00,
2013-06-12 22:33:00,58.0,56.0,29.76,ENE,68,3.0,5.0,94,0.00,,,0.20,,2013-06-13 02:33:00,
2013-06-12 22:43:00,58.0,56.0,29.76,ENE,68,3.0,5.0,94,0.00,,,0.20,,2013-06-13 02:43:00,
2013-06-12 22:52:00,58.0,56.0,29.76,ENE,68,3.0,5.0,94,0.00,,,0.20,,2013-06-13 02:52:00,
2013-06-12 23:02:00,58.0,56.0,29.76,ENE,68,3.0,5.0,94,0.00,,,0.20,,2013-06-13 03:02:00,